Location: ????????
(54.6123°N, 39.2099°E)
Time: 02:48:19
(UTC+00:00)

Cosmos 1302 Rocket - Pass Details

Date: 19 May 2025
Orbit: 753 x 772 km, 74.0° (Epoch: 15 June)

Event Time Altitude Azimuth Distance (km) Brightness Sun altitude
Rises 22:51:15 0° 332° (NNW) 3,226 7.9 -12.9°
Reaches altitude 10° 22:53:37 10° 333° (NNW) 2,300 7.1 -12.7°
Maximum altitude 22:58:51 89° 61° (ENE) 769 4.0 -12.4°
Drops below altitude 10° 23:04:05 10° 154° (SSE) 2,297 6.1 -12.1°
Enters shadow 23:05:50 - 155° (SSE) 2,983 6.7 -12.0°
